Starlink 1321

operational
NORAD ID: 45573 Int'l Des: 2020-025 Owner: SPXS Country: US Constellation: starlink
LEOCIRCULAR

Über Starlink 1321

Beschreibung wird geladen...

Live-Position

3D-Globus wird geladen...

Nächste Überflüge

Höhenverlauf

Altitude vs Time

uPlot chart will show altitude changes over time

Zweizeiliger Elementsatz

1 45573U 20025AU 26095.58336806 .00123295 00000-0 18957-2 0 9998
2 45573 53.0462 289.2986 0003042 185.4170 252.1841 15.53353711 5917
Epoch: 5. Apr. 2026 • Age: 9 hours

Aktueller Status

Höhe 423.8 km
Geschwindigkeit 7.66 km/s
Subsatellitenpunkt -48.36°S, 56.46°E
Startdatum 22. Apr. 2020
Alter 5.9 years
Typ internet

Technische Details

Klassifizierung Payload
Masse 260.00 kg
Trockenmasse 248.00 kg
Gesamtmasse 260.00 kg
Länge 0.20 m
Durchmesser 2.80 m
Spannweite 9.00 m
Form Box + pan
Hersteller SPXS
Bus-Typ Starlink
Phasenstatus In Orbit
Besitzer/Staat SPXS/US

Große Konstellationen

Loading constellations...